Time,TemperatureF,DewpointF,PressureIn,WindDirection,WindDirectionDegrees,WindSpeedMPH,WindSpeedGustMPH,Humidity,HourlyPrecipIn,Conditions,Clouds,dailyrainin,SoftwareType,DateUTC
2013-01-17 00:02:00,27.5,14.0,25.52,NW,318,7.0,14.0,56,0.00,,,0.00,weatherlink.com 1.10,2013-01-17 07:02:00,
2013-01-17 00:17:00,27.4,13.0,25.52,WNW,297,9.0,12.0,56,0.00,,,0.00,weatherlink.com 1.10,2013-01-17 07:17:00,
2013-01-17 00:32:00,27.7,13.0,25.52,WNW,283,7.0,15.0,55,0.00,,,0.00,weatherlink.com 1.10,2013-01-17 07:32:00,
2013-01-17 00:47:00,27.8,13.0,25.53,West,270,10.0,15.0,55,0.00,,,0.00,weatherlink.com 1.10,2013-01-17 07:47:00,
2013-01-17 01:02:00,27.4,13.0,25.53,WNW,292,9.0,14.0,55,0.00,,,0.00,weatherlink.com 1.10,2013-01-17 08:02:00,
2013-01-17 01:17:00,27.6,13.0,25.54,WNW,297,8.0,14.0,55,0.00,,,0.00,weatherlink.com 1.10,2013-01-17 08:17:00,
2013-01-17 01:32:00,27.2,13.0,25.54,WSW,254,11.0,13.0,56,0.00,,,0.00,weatherlink.com 1.10,2013-01-17 08:32:00,
2013-01-17 01:47:00,26.7,13.0,25.54,WSW,257,9.0,11.0,57,0.00,,,0.00,weatherlink.com 1.10,2013-01-17 08:47:00,
2013-01-17 02:02:00,27.9,13.0,25.54,West,274,10.0,16.0,54,0.00,,,0.00,weatherlink.com 1.10,2013-01-17 09:02:00,
2013-01-17 02:17:00,28.2,13.0,25.54,WNW,301,4.0,13.0,53,0.00,,,0.00,weatherlink.com 1.10,2013-01-17 09:17:00,
2013-01-17 02:32:00,28.2,13.0,25.55,WNW,293,8.0,11.0,53,0.00,,,0.00,weatherlink.com 1.10,2013-01-17 09:32:00,
2013-01-17 02:47:00,30.4,13.0,25.55,West,267,3.0,18.0,49,0.00,,,0.00,weatherlink.com 1.10,2013-01-17 09:47:00,
2013-01-17 03:03:00,27.9,13.0,25.55,West,271,7.0,13.0,53,0.00,,,0.00,weatherlink.com 1.10,2013-01-17 10:03:00,
2013-01-17 03:18:00,27.3,13.0,25.55,WNW,297,8.0,10.0,55,0.00,,,0.00,weatherlink.com 1.10,2013-01-17 10:18:00,
2013-01-17 03:33:00,26.8,12.0,25.56,WNW,285,3.0,12.0,55,0.00,,,0.00,weatherlink.com 1.10,2013-01-17 10:33:00,
2013-01-17 03:48:00,26.4,13.0,25.56,West,274,5.0,13.0,56,0.00,,,0.00,weatherlink.com 1.10,2013-01-17 10:48:00,
2013-01-17 04:03:00,25.8,12.0,25.56,West,267,8.0,13.0,57,0.00,,,0.00,weatherlink.com 1.10,2013-01-17 11:03:00,
2013-01-17 04:18:00,25.3,13.0,25.56,West,262,5.0,13.0,59,0.00,,,0.00,weatherlink.com 1.10,2013-01-17 11:18:00,
2013-01-17 04:33:00,23.8,12.0,25.56,WNW,290,7.0,11.0,61,0.00,,,0.00,weatherlink.com 1.10,2013-01-17 11:33:00,
2013-01-17 04:48:00,22.4,12.0,25.56,West,259,6.0,10.0,64,0.00,,,0.00,weatherlink.com 1.10,2013-01-17 11:48:00,
2013-01-17 05:03:00,22.0,12.0,25.56,West,281,5.0,10.0,65,0.00,,,0.00,weatherlink.com 1.10,2013-01-17 12:03:00,
2013-01-17 05:18:00,22.4,12.0,25.56,NW,309,6.0,10.0,64,0.00,,,0.00,weatherlink.com 1.10,2013-01-17 12:18:00,
2013-01-17 05:33:00,21.2,11.0,25.56,West,274,7.0,10.0,65,0.00,,,0.00,weatherlink.com 1.10,2013-01-17 12:33:00,
2013-01-17 05:48:00,20.3,11.0,25.56,West,280,5.0,9.0,67,0.00,,,0.00,weatherlink.com 1.10,2013-01-17 12:48:00,
2013-01-17 06:03:00,20.9,11.0,25.56,WNW,283,4.0,10.0,66,0.00,,,0.00,weatherlink.com 1.10,2013-01-17 13:03:00,
2013-01-17 06:18:00,20.4,11.0,25.56,NW,307,8.0,10.0,66,0.00,,,0.00,weatherlink.com 1.10,2013-01-17 13:18:00,
2013-01-17 06:33:00,19.7,10.0,25.56,West,266,8.0,12.0,67,0.00,,,0.00,weatherlink.com 1.10,2013-01-17 13:33:00,
2013-01-17 06:48:00,19.7,11.0,25.56,West,266,3.0,11.0,68,0.00,,,0.00,weatherlink.com 1.10,2013-01-17 13:48:00,
2013-01-17 07:03:00,20.1,10.0,25.57,WNW,297,8.0,13.0,66,0.00,,,0.00,weatherlink.com 1.10,2013-01-17 14:03:00,
2013-01-17 07:18:00,19.0,10.0,25.57,West,274,7.0,13.0,68,0.00,,,0.00,weatherlink.com 1.10,2013-01-17 14:18:00,
2013-01-17 07:33:00,18.6,10.0,25.57,West,280,7.0,12.0,68,0.00,,,0.00,weatherlink.com 1.10,2013-01-17 14:33:00,
2013-01-17 07:48:00,18.9,10.0,25.58,West,278,10.0,12.0,68,0.00,,,0.00,weatherlink.com 1.10,2013-01-17 14:48:00,
2013-01-17 08:03:00,20.0,10.0,25.59,West,281,8.0,12.0,66,0.00,,,0.00,weatherlink.com 1.10,2013-01-17 15:03:00,
2013-01-17 08:18:00,22.0,11.0,25.59,WNW,287,6.0,13.0,63,0.00,,,0.00,weatherlink.com 1.10,2013-01-17 15:18:00,
2013-01-17 08:33:00,24.4,11.0,25.59,NW,307,9.0,13.0,58,0.00,,,0.00,weatherlink.com 1.10,2013-01-17 15:33:00,
2013-01-17 08:48:00,25.5,12.0,25.60,WNW,283,5.0,10.0,56,0.00,,,0.00,weatherlink.com 1.10,2013-01-17 15:48:00,
2013-01-17 09:03:00,27.3,13.0,25.60,West,281,4.0,9.0,54,0.00,,,0.00,weatherlink.com 1.10,2013-01-17 16:03:00,
2013-01-17 09:18:00,29.0,13.0,25.60,WNW,293,5.0,8.0,52,0.00,,,0.00,weatherlink.com 1.10,2013-01-17 16:18:00,
2013-01-17 09:33:00,31.6,15.0,25.60,West,278,2.0,8.0,50,0.00,,,0.00,weatherlink.com 1.10,2013-01-17 16:33:00,
2013-01-17 09:49:00,33.8,15.0,25.60,West,270,5.0,7.0,46,0.00,,,0.00,weatherlink.com 1.10,2013-01-17 16:49:00,
2013-01-17 10:04:00,35.1,16.0,25.60,WSW,249,4.0,6.0,45,0.00,,,0.00,weatherlink.com 1.10,2013-01-17 17:04:00,
2013-01-17 10:19:00,38.8,17.0,25.59,WNW,302,2.0,4.0,41,0.00,,,0.00,weatherlink.com 1.10,2013-01-17 17:19:00,
2013-01-17 10:34:00,42.2,17.0,25.58,NNW,336,3.0,4.0,36,0.00,,,0.00,weatherlink.com 1.10,2013-01-17 17:34:00,
2013-01-17 10:49:00,43.9,16.0,25.57,West,274,2.0,5.0,33,0.00,,,0.00,weatherlink.com 1.10,2013-01-17 17:49:00,
2013-01-17 11:04:00,44.3,17.0,25.57,WNW,292,0.0,5.0,33,0.00,,,0.00,weatherlink.com 1.10,2013-01-17 18:04:00,
2013-01-17 11:19:00,45.4,15.0,25.56,NW,311,2.0,5.0,30,0.00,,,0.00,weatherlink.com 1.10,2013-01-17 18:19:00,
2013-01-17 11:34:00,46.4,17.0,25.55,WSW,252,5.0,11.0,31,0.00,,,0.00,weatherlink.com 1.10,2013-01-17 18:34:00,
2013-01-17 11:49:00,46.6,16.0,25.54,SE,136,2.0,12.0,29,0.00,,,0.00,weatherlink.com 1.10,2013-01-17 18:49:00,
2013-01-17 12:04:00,47.4,14.0,25.53,West,260,7.0,11.0,26,0.00,,,0.00,weatherlink.com 1.10,2013-01-17 19:04:00,
2013-01-17 12:19:00,47.2,15.0,25.53,SSW,210,10.0,16.0,27,0.00,,,0.00,weatherlink.com 1.10,2013-01-17 19:19:00,
2013-01-17 12:34:00,48.0,14.0,25.52,WSW,240,10.0,12.0,26,0.00,,,0.00,weatherlink.com 1.10,2013-01-17 19:34:00,
2013-01-17 12:49:00,48.3,15.0,25.51,West,262,5.0,10.0,26,0.00,,,0.00,weatherlink.com 1.10,2013-01-17 19:49:00,
2013-01-17 13:04:00,48.3,16.0,25.50,WSW,245,11.0,14.0,27,0.00,,,0.00,weatherlink.com 1.10,2013-01-17 20:04:00,
2013-01-17 13:19:00,48.3,16.0,25.50,WSW,250,7.0,14.0,27,0.00,,,0.00,weatherlink.com 1.10,2013-01-17 20:19:00,
2013-01-17 13:34:00,48.6,17.0,25.49,WSW,247,5.0,13.0,28,0.00,,,0.00,weatherlink.com 1.10,2013-01-17 20:34:00,
2013-01-17 13:49:00,48.8,17.0,25.48,WSW,239,12.0,13.0,28,0.00,,,0.00,weatherlink.com 1.10,2013-01-17 20:49:00,
2013-01-17 14:04:00,49.0,16.0,25.48,SW,222,8.0,13.0,27,0.00,,,0.00,weatherlink.com 1.10,2013-01-17 21:04:00,
2013-01-17 14:19:00,49.3,16.0,25.47,West,260,3.0,11.0,27,0.00,,,0.00,weatherlink.com 1.10,2013-01-17 21:19:00,
2013-01-17 14:34:00,49.2,16.0,25.47,WSW,256,6.0,13.0,27,0.00,,,0.00,weatherlink.com 1.10,2013-01-17 21:34:00,
2013-01-17 14:49:00,49.2,16.0,25.47,SSW,212,5.0,13.0,27,0.00,,,0.00,weatherlink.com 1.10,2013-01-17 21:49:00,
2013-01-17 15:04:00,49.6,17.0,25.47,SSW,212,4.0,13.0,27,0.00,,,0.00,weatherlink.com 1.10,2013-01-17 22:04:00,
2013-01-17 15:19:00,49.6,17.0,25.46,SSE,149,5.0,11.0,27,0.00,,,0.00,weatherlink.com 1.10,2013-01-17 22:19:00,
2013-01-17 15:34:00,49.4,17.0,25.46,SSW,210,4.0,13.0,28,0.00,,,0.00,weatherlink.com 1.10,2013-01-17 22:34:00,
2013-01-17 15:50:00,49.1,18.0,25.45,SSW,211,6.0,11.0,29,0.00,,,0.00,weatherlink.com 1.10,2013-01-17 22:50:00,
2013-01-17 16:05:00,48.4,19.0,25.45,SSW,212,3.0,9.0,31,0.00,,,0.00,weatherlink.com 1.10,2013-01-17 23:05:00,
2013-01-17 16:20:00,47.6,20.0,25.45,SSW,194,6.0,8.0,33,0.00,,,0.00,weatherlink.com 1.10,2013-01-17 23:20:00,
2013-01-17 16:35:00,46.1,20.0,25.45,SW,231,3.0,7.0,35,0.00,,,0.00,weatherlink.com 1.10,2013-01-17 23:35:00,
2013-01-17 16:50:00,43.3,20.0,25.45,SSW,195,3.0,6.0,39,0.00,,,0.00,weatherlink.com 1.10,2013-01-17 23:50:00,
2013-01-17 17:05:00,41.1,20.0,25.45,SSW,211,3.0,7.0,43,0.00,,,0.00,weatherlink.com 1.10,2013-01-18 00:05:00,
2013-01-17 17:20:00,39.5,21.0,25.45,SSE,165,4.0,8.0,47,0.00,,,0.00,weatherlink.com 1.10,2013-01-18 00:20:00,
2013-01-17 17:35:00,38.3,20.0,25.44,SW,215,5.0,7.0,49,0.00,,,0.00,weatherlink.com 1.10,2013-01-18 00:35:00,
2013-01-17 17:50:00,36.9,21.0,25.44,SSW,210,4.0,8.0,52,0.00,,,0.00,weatherlink.com 1.10,2013-01-18 00:50:00,
2013-01-17 18:05:00,36.4,21.0,25.44,SSW,212,6.0,9.0,53,0.00,,,0.00,weatherlink.com 1.10,2013-01-18 01:05:00,
2013-01-17 18:20:00,35.8,21.0,25.44,SW,231,6.0,9.0,55,0.00,,,0.00,weatherlink.com 1.10,2013-01-18 01:20:00,
2013-01-17 18:35:00,34.8,20.0,25.44,WNW,297,2.0,6.0,56,0.00,,,0.00,weatherlink.com 1.10,2013-01-18 01:35:00,
2013-01-17 18:50:00,33.2,20.0,25.43,West,276,5.0,7.0,59,0.00,,,0.00,weatherlink.com 1.10,2013-01-18 01:50:00,
2013-01-17 19:05:00,33.2,20.0,25.44,West,269,4.0,9.0,59,0.00,,,0.00,weatherlink.com 1.10,2013-01-18 02:05:00,
2013-01-17 19:20:00,32.7,20.0,25.43,West,262,5.0,10.0,60,0.00,,,0.00,weatherlink.com 1.10,2013-01-18 02:20:00,
2013-01-17 19:35:00,32.0,20.0,25.43,WNW,298,3.0,9.0,61,0.00,,,0.00,weatherlink.com 1.10,2013-01-18 02:35:00,
2013-01-17 19:50:00,31.0,20.0,25.43,West,276,4.0,8.0,64,0.00,,,0.00,weatherlink.com 1.10,2013-01-18 02:50:00,
2013-01-17 20:05:00,30.0,20.0,25.43,WSW,252,4.0,7.0,66,0.00,,,0.00,weatherlink.com 1.10,2013-01-18 03:05:00,
2013-01-17 20:20:00,30.4,20.0,25.42,WSW,242,4.0,6.0,66,0.00,,,0.00,weatherlink.com 1.10,2013-01-18 03:20:00,
2013-01-17 20:35:00,29.6,19.0,25.42,NW,319,3.0,4.0,66,0.00,,,0.00,weatherlink.com 1.10,2013-01-18 03:35:00,
2013-01-17 20:50:00,27.3,19.0,25.42,WNW,302,4.0,6.0,70,0.00,,,0.00,weatherlink.com 1.10,2013-01-18 03:50:00,
2013-01-17 21:05:00,26.4,19.0,25.42,West,265,8.0,9.0,72,0.00,,,0.00,weatherlink.com 1.10,2013-01-18 04:05:00,
2013-01-17 21:20:00,28.0,19.0,25.41,West,264,10.0,10.0,69,0.00,,,0.00,weatherlink.com 1.10,2013-01-18 04:20:00,
2013-01-17 21:35:00,27.6,19.0,25.41,WNW,293,12.0,14.0,69,0.00,,,0.00,weatherlink.com 1.10,2013-01-18 04:35:00,
2013-01-17 21:50:00,26.7,18.0,25.40,West,277,7.0,12.0,70,0.00,,,0.00,weatherlink.com 1.10,2013-01-18 04:50:00,
2013-01-17 22:05:00,25.4,18.0,25.39,WSW,248,6.0,9.0,73,0.00,,,0.00,weatherlink.com 1.10,2013-01-18 05:05:00,
2013-01-17 22:20:00,26.2,18.0,25.39,West,263,6.0,9.0,71,0.00,,,0.00,weatherlink.com 1.10,2013-01-18 05:20:00,
2013-01-17 22:35:00,26.4,17.0,25.39,West,277,8.0,10.0,69,0.00,,,0.00,weatherlink.com 1.10,2013-01-18 05:35:00,
2013-01-17 22:50:00,24.9,17.0,25.39,West,269,6.0,11.0,71,0.00,,,0.00,weatherlink.com 1.10,2013-01-18 05:50:00,
2013-01-17 23:05:00,24.8,17.0,25.38,West,278,6.0,10.0,71,0.00,,,0.00,weatherlink.com 1.10,2013-01-18 06:05:00,
2013-01-17 23:21:00,24.7,16.0,25.38,WNW,302,4.0,9.0,70,0.00,,,0.00,weatherlink.com 1.10,2013-01-18 06:21:00,
2013-01-17 23:35:00,24.0,16.0,25.37,West,277,5.0,7.0,71,0.00,,,0.00,weatherlink.com 1.10,2013-01-18 06:35:00,
2013-01-17 23:50:00,24.9,16.0,25.37,WNW,301,4.0,8.0,68,0.00,,,0.00,weatherlink.com 1.10,2013-01-18 06:50:00,